Hourly Data Report for January 08, 2018

All times are specified in Local Standard Time (LST). Add 1 hour to adjust for Daylight Saving Time where and when it is observed.

VANCOUVER INTL A
BRITISH COLUMBIA

49°11'41.000" N
123°11'02.000" W
4.30 m
1108395
71892
YVR

Download Data

Hourly Data (January 2018)
Hourly Data Report for January 8, 2018
Temp Definition
°C
Dew Point Temp Definition
°C
Rel Hum Definition
%
Wind Dir Definition
10's deg

Wind Spd Definition
km/h
Visibility Definition
km
Stn Press Definition
kPa
Hmdx Definition


Wind Chill Definition


Weather Definition


TIME
00:00 Legend Double Dagger 6.4 5.6 95 5 12 24.1 101.24     Rain
01:00 Legend Double Dagger 6.2 5.6 96 6 15 24.1 101.17     Rain
02:00 Legend Double Dagger 6.4 5.7 95 8 16 24.1 101.13     Rain
03:00 Legend Double Dagger 6.5 5.8 95 7 9 24.1 101.12     Rain
04:00 Legend Double Dagger 6.3 5.6 96 4 13 24.1 101.10     Rain
05:00 Legend Double Dagger 6.4 5.7 95 4 9 24.1 101.08     Rain
06:00 Legend Double Dagger 6.3 5.6 95 7 10 24.1 101.04     Rain
07:00 Legend Double Dagger 6.0 5.5 96 8 10 12.9 101.04     Rain
08:00 Legend Double Dagger 6.2 5.5 95 6 8 12.9 100.99     Rain
09:00 Legend Double Dagger 6.1 5.6 96 9 10 12.9 100.99     Rain
10:00 Legend Double Dagger 6.4 5.8 96 7 13 12.9 100.94     Rain
11:00 Legend Double Dagger 6.6 6.2 97 8 10 6.4 100.90     Rain,Fog
12:00 Legend Double Dagger 6.7 6.3 97 8 9 8.1 100.82     Rain,Fog
13:00 Legend Double Dagger 6.9 6.5 97 7 14 12.9 100.72     Rain
14:00 Legend Double Dagger 7.5 6.8 95 7 10 12.9 100.62     LegendNANA
15:00 Legend Double Dagger 7.7 6.7 93 6 10 16.1 100.56     LegendNANA
16:00 Legend Double Dagger 7.8 6.5 91 3 7 24.1 100.53     Cloudy
17:00 Legend Double Dagger 6.7 6.2 96 32 8 24.1 100.48     LegendNANA
18:00 Legend Double Dagger 7.0 6.3 95 19 5 24.1 100.46     Drizzle
19:00 Legend Double Dagger 7.0 6.4 96 6 7 32.2 100.39     Cloudy
20:00 Legend Double Dagger 7.1 6.0 93 9 9 32.2 100.33     LegendNANA
21:00 Legend Double Dagger 6.3 5.4 94 10 7 32.2 100.30     LegendNANA
22:00 Legend Double Dagger 6.3 5.4 94 10 11 19.3 100.26     Rain
23:00 Legend Double Dagger 6.2 5.6 96 9 5 32.2 100.24     Rain

Notes on Data Quality.

Legend

  • E = Estimated
  • M = Missing
  • NA = Not Available
  • ‡ = Partner data that is not subject to review by the National Climate Archives
Date modified: